Location: Casilda
(33.0440°S, 61.1680°W)
Time: 14:38:17
(UTC-03:00)

ISS - Pass Details

Date: 18 June 2021
Orbit: 417 x 422 km, 51.6° (Epoch: 16 June)

Event Time Altitude Azimuth Distance (km) Brightness Sun altitude
Rises 19:16:13 0° 322° (NW) 2,361 1.1 -14.5°
Reaches altitude 10° 19:18:19 10° 325° (NW) 1,505 -0.1 -15.0°
Maximum altitude 19:21:39 62° 46° (NE) 481 -3.7 -15.6°
Enters shadow 19:22:47 37° 112° (ESE) 680 -3.3 -15.8°
